User: anonymous   Login
Location: Platte
(43.3870°N, 98.8440°W)
Time: 05:20:30
(UTC-05:00)
Language:

Landsat 7 - Orbit

View from above orbital plane
View from above orbital plane
View from above satellite
View from above satellite

Ground track
Ground track

The orbit data is extracted from the following two-line orbital elements,

1 25682U 99020A   15213.80196798 -.00000487  00000-0 -97999-4 0  9991
2 25682 098.2145 283.1184 0000957 074.7123 285.4190 14.57102167866784
Epoch (UTC): 01 August 2015 19:14:50
Eccentricity: 0.0000957
inclination: 98.2145°
perigee height: 702 km
apogee height: 703 km
right ascension of ascending node: 283.1184°
argument of perigee: 74.7123°
revolutions per day: 14.57102167
mean anomaly at epoch: 285.4190°
orbit number at epoch: 86678

The dashed part of the orbit path shows where the satellite is in the earth's shadow,  

DLR